Theta_e
333 332 331 331 331 330 331 332 333 333 334 334 334 333 333 332 332 331 330 331 327 326 327 325 330 330 330 328 327 325 323 323 321 320 319 319 318 317 319 319 319 319 319
339 338 337 336 335 334 334 334 334 334 333 334 334 335 334 333 333 333 332 331 332 328 326 327 326 330 330 329 326 325 323 322 322 321 320 318 317 317 317 318 318 318 317
338 338 338 337 337 336 336 335 333 333 333 334 332 332 332 331 332 332 333 332 331 332 331 327 326 325 327 328 327 326 323 322 321 321 320 318 317 316 316 316 317 317 316
337 336 334 334 332 331 332 331 329 328 328 328 326 324 325 328 327 329 329 329 329 330 330 331 328 327 324 325 328 326 325 322 321 320 319 317 316 316 315 315 316 316 315
323 321 319 318 317 317 317 319 323 324 323 322 323 322 323 323 325 327 328 326 328 328 329 329 329 328 327 324 324 327 327 324 322 320 319 317 317 315 314 314 315 315 315
319 317 315 314 313 316 323 322 323 323 322 320 317 317 316 315 318 323 326 328 329 328 327 325 325 325 326 325 324 325 326 327 324 322 320 319 318 316 314 313 314 314 314
311 311 311 312 313 318 319 319 322 321 319 318 318 316 315 317 316 318 319 317 320 322 323 323 323 322 322 323 324 324 326 327 326 324 321 319 318 316 313 313 313 313 312
310 311 311 312 314 319 319 319 318 317 317 317 316 315 316 314 317 314 313 314 315 316 317 319 320 321 321 321 321 322 324 326 326 326 323 320 318 316 314 314 314 313 313
308 309 309 308 307 307 310 310 309 312 312 312 313 315 315 314 313 312 312 314 312 312 312 313 315 317 318 319 319 320 321 322 323 325 325 322 319 317 315 315 314 313 313
309 308 305 304 304 305 304 302 301 301 308 307 309 311 313 314 313 310 308 308 310 310 309 310 310 313 315 317 318 318 318 319 321 323 323 324 320 318 315 315 314 313 313
306 305 304 303 303 302 301 300 300 300 302 306 307 307 308 308 309 310 311 306 307 308 308 308 309 308 309 314 316 316 317 317 318 320 322 322 324 319 316 315 313 313 312
304 305 303 303 301 301 301 300 300 300 300 300 301 306 307 306 304 306 308 308 308 307 307 307 307 307 310 311 311 313 314 315 316 317 318 321 321 320 319 316 314 314 313
304 303 302 303 303 302 302 302 301 301 301 303 305 305 306 306 306 306 307 307 308 307 306 306 306 307 306 308 309 307 307 311 315 315 314 313 320 320 319 317 315 314 313
301 301 301 302 301 301 301 301 301 301 301 301 302 303 304 304 305 306 306 306 307 305 305 305 305 305 306 306 305 304 306 305 307 312 314 312 310 318 320 316 315 314 313
299 299 299 299 299 299 300 300 300 300 300 300 300 300 303 303 305 305 305 305 305 306 306 304 304 303 303 304 305 305 303 304 303 305 308 311 312 310 318 317 315 314 312
300 300 299 299 299 299 299 299 299 299 299 300 301 302 302 302 303 304 304 304 304 305 306 303 302 303 303 303 303 303 303 301 301 301 305 307 309 310 311 310 315 314 312
298 298 298 298 297 297 298 298 300 299 300 301 301 302 302 302 303 304 305 305 304 304 305 304 303 303 303 303 303 302 303 301 301 300 301 303 307 308 309 311 308 315 312
297 296 298 297 297 297 298 298 299 299 300 300 300 300 301 301 301 302 302 302 302 303 303 303 302 301 302 302 302 302 302 301 300 300 300 301 300 303 307 308 310 311 313
296 296 296 297 297 297 297 297 298 298 298 299 298 298 298 299 299 300 300 300 300 300 301 301 301 300 299 300 300 301 301 300 299 299 299 299 299 300 302 307 308 309 311
295 296 296 296 296 296 295 295 296 296 296 296 296 296 296 297 297 296 295 296 297 298 298 298 298 299 298 298 298 299 300 299 299 298 298 298 299 300 302 304 307 308 310
294 295 295 295 295 294 294 293 294 294 294 295 295 295 295 294 293 292 292 292 293 294 294 295 297 297 297 299 298 299 298 298 297 297 298 300 301 302 302 303 304 307 307
294 293 294 294 294 294 293 292 292 292 293 293 293 293 293 293 293 292 292 291 292 292 293 293 294 295 296 297 297 297 297 296 297 296 296 296 296 297 301 303 303 306 305
293 293 293 294 294 294 292 291 290 290 291 290 290 290 290 290 290 292 292 291 292 292 292 292 293 293 295 295 296 295 295 295 295 295 294 294 294 294 297 301 302 303 304
293 293 293 292 292 293 291 290 289 289 289 289 288 288 289 289 289 288 288 289 290 291 292 292 292 292 293 294 294 294 293 293 292 292 292 292 290 290 293 299 302 304 304
291 291 291 290 290 290 289 289 288 289 288 288 288 287 287 288 287 287 287 288 289 290 291 292 292 292 292 293 293 292 291 291 292 290 290 288 288 287 288 291 300 302 303
289 289 290 289 289 289 289 288 288 288 288 288 288 287 287 286 286 286 286 287 288 289 290 291 292 292 292 292 291 290 290 291 292 289 288 288 288 288 287 286 289 294 292
Wind_Speed
4 5 6 7 7 8 8 9 10 11 13 15 16 16 17 17 18 17 17 21 20 20 22 23 21 20 20 20 21 20 17 19 18 18 18 20 19 18 18 16 15 15 15
5 6 8 9 10 10 9 10 11 13 17 19 21 23 23 20 19 19 18 19 23 22 23 25 25 24 23 22 22 24 21 20 21 21 20 20 21 21 22 20 19 18 18
1 2 4 5 6 7 7 10 10 12 13 14 16 18 18 16 18 18 19 20 20 24 26 27 28 30 29 28 25 25 23 21 21 22 22 21 22 22 23 24 22 21 21
5 7 7 7 7 7 7 8 9 10 9 9 12 14 15 15 19 20 20 21 23 22 22 27 31 32 33 33 29 26 25 23 22 22 23 23 23 24 23 25 25 23 23
11 11 11 11 11 10 9 8 8 9 10 11 11 12 13 13 16 16 17 19 19 24 25 26 28 31 36 37 37 30 28 27 26 25 24 25 26 25 24 25 26 26 24
10 10 10 9 9 8 7 7 7 7 7 10 15 13 17 17 15 14 15 15 16 18 20 22 25 28 29 35 40 39 33 31 30 29 28 28 28 27 27 27 28 26 26
10 9 9 9 9 8 7 8 6 8 10 14 11 18 16 10 12 13 9 15 15 16 18 19 21 27 29 30 35 40 39 36 35 34 32 32 31 31 29 29 30 28 26
9 10 10 11 11 8 8 7 8 8 9 13 12 18 7 15 4 19 18 12 14 14 17 17 19 22 24 29 31 33 40 42 40 39 39 35 35 33 32 29 29 26 27
10 10 11 10 10 9 7 7 8 7 8 8 10 6 6 6 19 11 17 12 15 20 15 18 18 19 21 24 28 34 37 43 47 45 41 39 38 38 35 32 29 27 27
9 8 9 8 8 7 7 7 9 8 5 7 6 5 9 13 6 10 10 21 19 17 23 21 23 22 21 22 25 30 35 37 45 52 48 44 45 42 40 36 32 31 31
6 5 5 5 4 3 5 6 7 8 8 6 5 7 8 11 14 13 14 16 25 22 23 25 22 25 26 25 25 26 31 36 40 44 53 51 42 47 42 37 37 35 32
2 3 3 2 4 6 8 8 9 10 11 11 10 9 10 9 13 13 11 19 21 26 23 22 21 26 20 20 25 26 26 32 35 39 46 53 53 52 44 46 38 39 35
2 1 4 6 8 10 12 13 13 14 15 14 14 14 13 14 16 16 16 17 15 28 26 22 21 18 23 20 19 25 25 27 39 34 31 36 53 48 54 49 48 41 40
2 5 8 9 11 13 14 15 17 19 20 21 20 19 18 19 18 18 17 18 13 17 26 27 22 23 18 22 27 33 26 27 26 28 37 31 24 43 49 56 51 48 44
4 6 8 9 10 12 12 13 15 17 17 20 22 22 19 20 20 19 19 20 20 12 13 27 14 18 22 23 23 22 25 21 28 26 22 31 28 29 42 59 55 55 52
1 3 5 7 9 11 13 14 15 17 19 19 19 18 18 19 19 19 20 20 21 23 11 25 25 24 21 23 22 22 22 25 30 26 22 22 22 32 22 20 58 58 54
3 6 8 9 11 13 15 15 15 16 16 17 16 17 18 18 18 18 18 18 20 22 15 31 26 24 25 25 24 22 20 22 17 24 23 20 20 24 22 31 26 60 57
7 7 8 10 10 11 12 12 12 12 13 14 15 15 17 17 17 17 17 19 19 20 21 25 25 24 27 25 26 25 22 21 23 16 17 20 20 22 24 24 24 32 61
5 5 7 8 10 10 11 11 11 12 13 15 17 18 19 19 21 20 20 19 17 17 20 22 26 23 24 22 25 24 21 21 20 21 17 19 19 20 22 22 19 33 44
5 6 7 8 7 9 10 11 13 14 16 17 18 18 19 19 20 22 22 21 21 19 19 23 23 22 20 21 22 22 24 17 22 20 22 22 20 19 18 22 24 26 49
6 6 7 6 7 9 10 14 15 16 17 18 18 19 19 21 26 24 20 20 21 22 21 21 19 20 18 20 17 20 22 22 25 20 17 15 16 15 16 21 22 24 37
6 4 4 7 9 9 12 15 20 19 18 19 20 21 21 24 24 26 27 26 27 26 25 24 21 19 19 17 19 22 21 16 6 14 12 23 23 22 18 16 19 20 33
6 6 6 8 10 11 14 17 20 19 18 19 20 23 24 24 27 25 26 27 26 27 26 28 26 23 22 20 21 21 17 17 20 21 22 22 19 16 17 19 23 22 24
5 7 9 10 11 12 14 17 20 18 19 18 20 23 24 27 25 28 30 29 30 30 29 28 30 29 28 26 25 23 22 21 21 25 21 6 9 9 11 13 21 23 28
7 8 9 12 13 13 14 17 21 19 19 20 20 22 25 28 30 28 31 28 29 30 28 28 25 24 23 23 22 21 17 13 9 7 9 5 0 9 18 17 12 22 37
7 9 11 12 13 12 14 17 20 20 21 22 23 23 23 26 29 30 29 29 26 26 26 23 18 15 17 20 20 19 21 16 10 3 9 5 8 3 4 22 26 31 38
Wind_Direction
286 286 292 302 302 302 299 292 288 289 290 292 290 289 292 292 292 291 290 291 284 270 262 257 245 245 245 247 245 243 246 240 237 234 232 226 230 224 223 226 224 219 213
284 287 290 292 298 305 301 299 296 293 297 301 301 299 295 289 288 285 283 285 288 280 268 261 256 245 244 243 246 250 246 240 236 236 231 228 229 222 217 221 221 225 222
318 300 308 317 318 318 314 316 316 320 316 318 319 316 316 309 302 293 291 288 286 285 275 268 259 257 245 242 243 241 243 243 238 234 231 232 232 227 219 214 221 224 224
85 88 80 67 45 26 18 11 360 348 345 339 336 331 323 309 313 301 298 293 290 284 280 276 266 259 254 249 242 242 238 238 234 232 230 227 231 228 225 218 216 223 224
92 88 76 62 52 46 39 27 21 12 356 345 333 319 307 299 285 285 285 294 287 291 290 286 287 275 263 255 249 240 239 236 230 226 226 227 227 225 221 220 215 217 222
84 67 54 38 26 28 30 19 9 357 350 342 328 317 314 308 295 290 291 296 295 293 291 290 293 291 284 265 255 247 239 235 231 227 223 221 221 222 219 214 212 215 218
70 63 61 53 46 42 31 16 9 1 349 348 331 324 315 308 323 304 325 314 309 312 309 303 297 294 294 285 264 253 242 239 233 229 226 219 219 219 219 213 211 210 212
74 67 62 60 56 54 48 39 21 358 342 351 340 326 328 312 298 323 316 322 313 322 313 307 301 295 290 283 275 273 254 241 239 233 226 221 219 221 220 214 208 202 203
75 65 58 55 43 35 24 14 17 15 354 345 347 320 316 313 320 300 301 291 311 304 299 297 293 292 289 283 277 270 264 254 250 238 234 221 220 218 217 212 208 200 201
76 58 42 31 30 41 41 25 10 3 352 338 340 314 290 297 308 310 303 304 300 298 306 304 304 295 286 277 276 273 267 265 255 243 240 228 217 218 215 209 207 201 193
73 50 41 34 32 10 337 331 330 333 330 312 288 306 294 288 291 293 307 310 303 300 301 298 299 301 300 291 277 276 275 271 265 257 244 236 228 208 210 211 205 203 196
99 80 20 347 330 307 303 308 305 312 309 305 288 276 270 284 291 290 295 305 305 305 303 301 293 302 299 300 298 292 287 275 273 268 259 246 238 211 214 210 205 203 194
131 330 307 290 293 306 310 304 300 297 296 292 293 292 286 281 285 283 283 293 299 304 303 300 306 302 308 304 319 324 323 302 267 263 270 273 246 232 211 209 203 202 193
289 287 292 295 300 301 300 299 295 293 295 295 292 290 287 283 280 277 276 290 297 298 304 301 300 305 312 303 306 306 320 321 324 291 266 267 282 245 219 207 205 200 199
281 294 302 305 306 305 307 308 308 308 305 302 300 297 290 286 282 277 277 275 280 290 295 300 310 305 312 309 308 310 310 310 316 311 318 279 266 278 235 210 209 201 199
352 348 338 328 324 322 324 322 317 318 318 314 308 305 300 293 286 276 274 273 276 279 286 285 294 297 301 303 305 309 307 313 312 313 308 304 294 281 271 280 206 205 201
327 316 310 314 319 319 317 314 317 315 314 315 317 310 306 309 302 296 287 284 283 280 279 286 291 299 299 298 298 302 302 308 311 312 304 302 298 301 293 264 273 205 202
308 307 308 318 326 326 324 320 321 323 328 327 326 330 326 324 315 308 300 290 287 282 278 283 292 294 296 299 296 300 301 302 307 308 301 297 295 286 280 282 257 237 201
317 324 334 340 344 337 328 331 327 322 319 321 322 318 315 313 309 306 304 300 294 290 286 282 289 295 294 300 300 294 298 301 305 316 314 305 297 286 281 277 283 257 221
348 354 351 349 338 333 339 333 330 323 321 316 310 309 309 306 307 310 305 298 293 286 284 283 282 288 289 296 291 290 302 302 305 313 312 303 310 291 281 271 264 265 236
357 351 344 342 341 345 348 350 344 329 319 311 309 309 304 303 311 310 307 302 301 293 282 278 278 281 280 289 285 293 295 301 308 315 316 316 321 305 284 277 265 255 236
3 353 359 354 342 335 344 339 334 323 315 317 315 310 310 312 309 305 304 299 295 285 280 276 277 276 272 275 283 286 294 303 310 314 315 311 308 297 287 268 264 244 230
7 349 339 334 323 325 338 336 332 324 320 320 316 314 315 310 309 305 306 305 300 292 281 274 271 272 273 272 276 274 277 284 288 295 299 295 287 293 284 275 266 263 239
343 338 329 319 315 322 334 337 331 326 320 316 314 314 310 309 309 311 312 307 305 298 286 278 271 273 271 278 277 269 280 281 286 288 287 283 306 345 332 276 256 255 230
351 330 317 320 320 321 337 340 338 331 323 317 314 314 312 307 312 314 316 308 304 298 299 295 287 278 274 274 271 277 265 265 271 228 242 228 234 47 44 30 242 233 204
329 318 316 318 324 319 335 346 342 334 323 322 317 310 308 308 311 314 313 307 298 295 299 300 294 279 273 272 271 267 270 256 246 239 217 171 164 185 56 32 83 128 136